| time (UTC) | temp C | wind direction | speed KPH | gust KPH | rain 1hr cm | rain 24hr cm | rain mn cm | humidity % | barometer mb |
| 20260503201707 | 14 | 300 | 6.4 | 16.1 | 0.00 | 0.00 | 0.00 | 30 | 995.8 |
| 20260503200207 | 13 | 313 | 4.8 | 11.3 | 0.00 | 0.00 | 0.00 | 29 | 995.8 |
| 20260503194707 | 13 | 296 | 6.4 | 17.7 | 0.00 | 0.00 | 0.00 | 30 | 995.8 |
| 20260503193207 | 13 | 307 | 12.9 | 14.5 | 0.00 | 0.00 | 0.00 | 28 | 995.8 |
| 20260503191707 | 13 | 303 | 6.4 | 20.9 | 0.00 | 0.00 | 0.00 | 32 | 995.8 |
| 20260503190207 | 13 | 253 | 4.8 | 14.5 | 0.00 | 0.00 | 0.00 | 33 | 995.8 |
| 20260503184707 | 13 | 9 | 3.2 | 17.7 | 0.00 | 0.00 | 0.00 | 34 | 995.9 |
| 20260503183207 | 13 | 13 | 3.2 | 14.5 | 0.00 | 0.00 | 0.00 | 34 | 995.9 |
| 20260503181707 | 12 | 355 | 4.8 | 22.5 | 0.00 | 0.00 | 0.00 | 33 | 996.0 |
| 20260503180207 | 12 | 5 | 11.3 | 12.9 | 0.00 | 0.00 | 0.00 | 33 | 996.4 |
| 20260503174707 | 12 | 342 | 6.4 | 16.1 | 0.00 | 0.00 | 0.00 | 35 | 996.4 |
| 20260503173208 | 12 | 275 | 6.4 | 14.5 | 0.00 | 0.00 | 0.00 | 37 | 996.4 |
| 20260503171707 | 12 | 5 | 14.5 | 16.1 | 0.00 | 0.00 | 0.00 | 36 | 996.5 |
| 20260503170207 | 12 | 300 | 6.4 | 12.9 | 0.00 | 0.00 | 0.00 | 39 | 996.5 |
| 20260503160207 | 11 | 334 | 12.9 | 14.5 | 0.00 | 0.00 | 0.00 | 40 | 996.9 |
| 20260503150207 | 11 | 347 | 4.8 | 12.9 | 0.00 | 0.00 | 0.00 | 57 | 996.5 |
| 20260503140207 | 10 | 310 | 3.2 | 8.0 | 0.00 | 0.00 | 0.00 | 74 | 997.1 |
| 20260503130207 | 8 | 184 | 1.6 | 8.0 | 0.00 | 0.00 | 0.00 | 82 | 997.2 |
| 20260503120207 | 4 | 182 | 0.0 | 3.2 | 0.00 | 0.00 | 0.00 | 96 | 997.4 |
| 20260503110207 | -1 | 182 | 0.0 | 0.0 | 0.00 | 0.00 | 0.00 | 92 | 997.8 |
| 20260503100206 | -1 | 182 | 0.0 | 0.0 | 0.00 | 0.00 | 0.00 | 88 | 998.3 |
| 20260503090206 | 0 | 182 | 0.0 | 0.0 | 0.00 | 0.00 | 0.00 | 88 | 998.8 |
| 20260503080206 | 1 | 182 | 0.0 | 0.0 | 0.00 | 0.00 | 0.00 | 74 | 999.3 |
| 20260503071706 | 3 | 182 | 0.0 | 0.0 | 0.00 | 0.00 | 0.00 | 66 | 999.6 |
| 20260503070206 | 3 | 182 | 0.0 | 0.0 | 0.00 | 0.00 | 0.00 | 64 | 999.8 |
| 20260503060206 | 5 | 182 | 0.0 | 0.0 | 0.00 | 0.00 | 0.00 | 58 | 1000.7 |
| 20260503054706 | 5 | 182 | 0.0 | 0.0 | 0.00 | 0.00 | 0.00 | 54 | 1000.7 |
| 20260503053206 | 5 | 182 | 0.0 | 0.0 | 0.00 | 0.00 | 0.00 | 53 | 1000.8 |
| 20260503051706 | 5 | 182 | 0.0 | 0.0 | 0.00 | 0.00 | 0.00 | 50 | 1001.1 |
| 20260503050206 | 5 | 182 | 0.0 | 0.0 | 0.00 | 0.00 | 0.00 | 50 | 1001.2 |
| 20260503044706 | 6 | 182 | 0.0 | 1.6 | 0.00 | 0.00 | 0.00 | 50 | 1001.2 |
| 20260503043206 | 6 | 182 | 0.0 | 0.0 | 0.00 | 0.00 | 0.00 | 50 | 1001.3 |
| 20260503041706 | 5 | 182 | 0.0 | 4.8 | 0.00 | 0.00 | 0.00 | 52 | 1001.4 |
| 20260503040206 | 5 | 182 | 0.0 | 4.8 | 0.00 | 0.00 | 0.00 | 52 | 1001.5 |
| 20260503034706 | 6 | 182 | 0.0 | 1.6 | 0.00 | 0.00 | 0.00 | 50 | 1001.9 |
| 20260503033206 | 6 | 182 | 0.0 | 0.0 | 0.00 | 0.00 | 0.00 | 49 | 1002.1 |
| 20260503031706 | 6 | 182 | 0.0 | 1.6 | 0.00 | 0.00 | 0.00 | 49 | 1002.3 |
| 20260503030206 | 6 | 182 | 0.0 | 0.0 | 0.00 | 0.00 | 0.00 | 49 | 1002.5 |
| 20260503024706 | 6 | 182 | 0.0 | 4.8 | 0.00 | 0.00 | 0.00 | 48 | 1002.5 |
| 20260503023206 | 6 | 182 | 0.0 | 1.6 | 0.00 | 0.00 | 0.00 | 49 | 1002.6 |
| 20260503021706 | 6 | 182 | 0.0 | 1.6 | 0.00 | 0.00 | 0.00 | 49 | 1002.6 |
| 20260503020206 | 6 | 182 | 0.0 | 0.0 | 0.00 | 0.00 | 0.00 | 50 | 1003.0 |
| 20260503014706 | 7 | 182 | 0.0 | 4.8 | 0.00 | 0.00 | 0.00 | 48 | 1002.8 |
| 20260503013206 | 7 | 182 | 0.0 | 0.0 | 0.00 | 0.00 | 0.00 | 47 | 1002.8 |
| 20260503011706 | 7 | 182 | 0.0 | 9.7 | 0.00 | 0.00 | 0.00 | 47 | 1002.6 |
| 20260503010206 | 8 | 182 | 0.0 | 1.6 | 0.00 | 0.00 | 0.00 | 46 | 1002.7 |
| 20260503004706 | 8 | 182 | 1.6 | 6.4 | 0.00 | 0.00 | 0.00 | 46 | 1002.7 |
| 20260503003206 | 8 | 182 | 0.0 | 0.0 | 0.00 | 0.00 | 0.00 | 45 | 1003.1 |
| 20260503001706 | 9 | 182 | 6.4 | 8.0 | 0.00 | 0.00 | 0.00 | 44 | 1003.2 |
| 20260503000206 | 9 | 182 | 0.0 | 8.0 | 0.00 | 0.00 | 0.00 | 43 | 1003.3 |
| 20260502234706 | 10 | 182 | 0.0 | 6.4 | 0.00 | 0.00 | 0.00 | 43 | 1003.6 |
| 20260502233206 | 10 | 182 | 0.0 | 6.4 | 0.00 | 0.00 | 0.00 | 43 | 1003.8 |
| 20260502231706 | 10 | 182 | 0.0 | 9.7 | 0.00 | 0.00 | 0.00 | 44 | 1003.9 |
| 20260502230206 | 10 | 182 | 0.0 | 3.2 | 0.00 | 0.00 | 0.00 | 42 | 1004.0 |
| 20260502224706 | 10 | 173 | 1.6 | 12.9 | 0.00 | 0.00 | 0.00 | 42 | 1004.2 |
| 20260502223206 | 10 | 173 | 0.0 | 9.7 | 0.00 | 0.00 | 0.00 | 40 | 1004.3 |
| 20260502221706 | 11 | 167 | 0.0 | 9.7 | 0.00 | 0.00 | 0.00 | 38 | 1004.3 |
| 20260502220205 | 12 | 165 | 9.7 | 9.7 | 0.00 | 0.00 | 0.00 | 38 | 1004.2 |
| 20260502214704 | 12 | 171 | 0.0 | 16.1 | 0.00 | 0.00 | 0.00 | 36 | 1004.4 |
| 20260502213204 | 12 | 257 | 3.2 | 4.8 | 0.00 | 0.00 | 0.00 | 36 | 1004.5 |
| 20260502211704 | 12 | 277 | 0.0 | 11.3 | 0.00 | 0.00 | 0.00 | 36 | 1004.7 |
| 20260502210204 | 13 | 280 | 0.0 | 4.8 | 0.00 | 0.00 | 0.00 | 32 | 1005.0 |
| 20260502204704 | 13 | 286 | 0.0 | 14.5 | 0.00 | 0.00 | 0.00 | 30 | 1005.1 |
| 20260502203204 | 13 | 279 | 9.7 | 14.5 | 0.00 | 0.00 | 0.00 | 31 | 1005.3 |